Time,TemperatureF,DewpointF,PressureIn,WindDirection,WindDirectionDegrees,WindSpeedMPH,WindSpeedGustMPH,Humidity,HourlyPrecipIn,Conditions,Clouds,dailyrainin,SoftwareType,DateUTC
2013-11-13 00:01:00,46.7,46.7,30.27,NW,322,0.0,0.0,100,0.00,,CLR,0.00,VWS V14.01,2013-11-13 08:01:00,
2013-11-13 00:06:00,46.5,46.5,30.27,NW,320,0.0,0.0,100,0.00,,CLR,0.00,VWS V14.01,2013-11-13 08:06:00,
2013-11-13 00:11:00,46.4,46.4,30.27,NW,320,0.0,0.0,100,0.00,,CLR,0.00,VWS V14.01,2013-11-13 08:11:00,
2013-11-13 00:16:00,46.3,46.3,30.27,NW,320,0.0,0.0,100,0.00,,CLR,0.00,VWS V14.01,2013-11-13 08:16:00,
2013-11-13 00:21:00,46.2,46.2,30.27,NW,320,0.0,0.0,100,0.00,,CLR,0.00,VWS V14.01,2013-11-13 08:21:00,
2013-11-13 00:26:00,46.2,46.2,30.26,NW,320,0.0,0.0,100,0.00,,CLR,0.00,VWS V14.01,2013-11-13 08:26:00,
2013-11-13 00:31:00,46.1,46.1,30.26,NW,320,0.0,0.0,100,0.00,,CLR,0.00,VWS V14.01,2013-11-13 08:31:00,
2013-11-13 00:36:00,46.0,46.0,30.26,NW,317,0.0,0.0,100,0.00,,CLR,0.00,VWS V14.01,2013-11-13 08:36:00,
2013-11-13 00:41:00,45.9,45.9,30.26,NW,305,0.0,0.0,100,0.00,,CLR,0.00,VWS V14.01,2013-11-13 08:41:00,
2013-11-13 00:46:00,45.9,45.9,30.26,WNW,291,0.0,0.0,100,0.00,,CLR,0.00,VWS V14.01,2013-11-13 08:46:00,
2013-11-13 00:51:00,45.7,45.7,30.26,SW,230,0.0,0.0,100,0.00,,CLR,0.00,VWS V14.01,2013-11-13 08:51:00,
2013-11-13 00:56:00,45.6,45.6,30.27,WNW,288,0.0,0.0,100,0.00,,CLR,0.00,VWS V14.01,2013-11-13 08:56:00,
2013-11-13 01:01:00,45.5,45.5,30.27,West,281,0.0,0.0,100,0.00,,CLR,0.00,VWS V14.01,2013-11-13 09:01:00,
2013-11-13 01:07:00,45.3,45.3,30.27,West,280,0.0,0.0,100,0.00,,CLR,0.00,VWS V14.01,2013-11-13 09:07:00,
2013-11-13 01:12:00,45.3,45.3,30.27,West,278,0.0,0.0,100,0.00,,CLR,0.00,VWS V14.01,2013-11-13 09:12:00,
2013-11-13 01:17:00,45.2,45.2,30.27,WNW,292,0.0,0.0,100,0.00,,CLR,0.00,VWS V14.01,2013-11-13 09:17:00,
2013-11-13 01:22:00,45.1,45.1,30.26,WSW,253,0.0,0.0,100,0.00,,CLR,0.00,VWS V14.01,2013-11-13 09:22:00,
2013-11-13 01:27:00,45.0,45.0,30.26,WSW,253,0.0,0.0,100,0.00,,CLR,0.00,VWS V14.01,2013-11-13 09:27:00,
2013-11-13 01:32:00,44.8,44.8,30.26,WSW,252,0.0,0.0,100,0.00,,CLR,0.00,VWS V14.01,2013-11-13 09:32:00,
2013-11-13 01:37:00,44.7,44.7,30.26,WSW,255,0.0,0.0,100,0.00,,CLR,0.00,VWS V14.01,2013-11-13 09:37:00,
2013-11-13 01:42:00,44.7,44.7,30.26,WSW,254,0.0,0.0,100,0.00,,CLR,0.00,VWS V14.01,2013-11-13 09:42:00,
2013-11-13 01:47:00,44.6,44.6,30.26,WSW,251,0.0,0.0,100,0.00,,CLR,0.00,VWS V14.01,2013-11-13 09:47:00,
2013-11-13 01:52:00,44.5,44.5,30.26,WSW,254,0.0,0.0,100,0.00,,CLR,0.00,VWS V14.01,2013-11-13 09:52:00,
2013-11-13 01:57:00,44.3,44.3,30.26,West,261,0.0,0.0,100,0.00,,CLR,0.00,VWS V14.01,2013-11-13 09:57:00,
2013-11-13 02:02:00,44.2,44.2,30.25,West,260,0.0,0.0,100,0.00,,CLR,0.00,VWS V14.01,2013-11-13 10:02:00,
2013-11-13 02:07:00,44.0,44.0,30.26,WSW,255,0.0,0.0,100,0.00,,CLR,0.00,VWS V14.01,2013-11-13 10:07:00,
2013-11-13 02:12:00,43.9,43.9,30.25,WSW,257,0.0,0.0,100,0.00,,CLR,0.00,VWS V14.01,2013-11-13 10:12:00,
2013-11-13 02:17:00,43.9,43.9,30.25,WSW,258,0.0,0.0,100,0.00,,CLR,0.00,VWS V14.01,2013-11-13 10:17:00,
2013-11-13 02:22:00,43.7,43.7,30.25,WSW,257,0.0,0.0,100,0.00,,CLR,0.00,VWS V14.01,2013-11-13 10:22:00,
2013-11-13 02:27:00,43.6,43.6,30.25,West,260,0.0,0.0,100,0.00,,CLR,0.00,VWS V14.01,2013-11-13 10:27:00,
2013-11-13 02:32:00,43.6,43.6,30.25,WNW,284,0.0,0.0,100,0.00,,CLR,0.00,VWS V14.01,2013-11-13 10:32:00,
2013-11-13 02:37:00,43.5,43.5,30.25,WNW,284,0.0,0.0,100,0.00,,CLR,0.00,VWS V14.01,2013-11-13 10:37:00,
2013-11-13 02:43:00,43.5,43.5,30.24,WNW,282,0.0,0.0,100,0.00,,CLR,0.00,VWS V14.01,2013-11-13 10:43:00,
2013-11-13 02:48:00,43.4,43.4,30.24,West,265,0.0,0.0,100,0.00,,CLR,0.00,VWS V14.01,2013-11-13 10:48:00,
2013-11-13 02:53:00,43.3,43.3,30.24,SW,236,0.0,0.0,100,0.00,,CLR,0.00,VWS V14.01,2013-11-13 10:53:00,
2013-11-13 02:58:00,43.2,43.2,30.24,WSW,238,0.0,0.0,100,0.00,,CLR,0.00,VWS V14.01,2013-11-13 10:58:00,
2013-11-13 03:03:00,43.1,43.1,30.24,SW,236,0.0,0.0,100,0.00,,CLR,0.00,VWS V14.01,2013-11-13 11:03:00,
2013-11-13 03:08:00,43.0,43.0,30.24,WSW,238,0.0,0.0,100,0.00,,CLR,0.00,VWS V14.01,2013-11-13 11:08:00,
2013-11-13 03:13:00,43.0,43.0,30.24,WSW,240,0.0,0.0,100,0.00,,CLR,0.00,VWS V14.01,2013-11-13 11:13:00,
2013-11-13 03:18:00,42.9,42.9,30.23,WSW,240,0.0,0.0,100,0.00,,CLR,0.00,VWS V14.01,2013-11-13 11:18:00,
2013-11-13 03:23:00,42.9,42.9,30.23,WSW,240,0.0,0.0,100,0.00,,CLR,0.00,VWS V14.01,2013-11-13 11:23:00,
2013-11-13 03:30:00,42.8,42.8,30.23,WSW,241,0.0,0.0,100,0.00,,CLR,0.00,VWS V14.01,2013-11-13 11:30:00,
2013-11-13 03:35:00,42.7,42.7,30.24,WSW,241,0.0,0.0,100,0.00,,CLR,0.00,VWS V14.01,2013-11-13 11:35:00,
2013-11-13 03:40:00,42.7,42.7,30.23,WSW,241,0.0,0.0,100,0.00,,CLR,0.00,VWS V14.01,2013-11-13 11:40:00,
2013-11-13 03:46:00,42.7,42.7,30.23,WSW,241,0.0,0.0,100,0.00,,CLR,0.00,VWS V14.01,2013-11-13 11:46:00,
2013-11-13 03:51:00,42.6,42.6,30.23,WSW,242,0.0,0.0,100,0.00,,CLR,0.00,VWS V14.01,2013-11-13 11:51:00,
2013-11-13 03:56:00,42.5,42.5,30.23,WSW,242,0.0,0.0,100,0.00,,CLR,0.00,VWS V14.01,2013-11-13 11:56:00,
2013-11-13 04:01:00,42.4,42.4,30.23,WSW,242,0.0,0.0,100,0.00,,CLR,0.00,VWS V14.01,2013-11-13 12:01:00,
2013-11-13 04:06:00,42.4,42.4,30.23,WSW,241,0.0,0.0,100,0.00,,CLR,0.00,VWS V14.01,2013-11-13 12:06:00,
2013-11-13 04:11:00,42.3,42.3,30.23,WSW,242,0.0,0.0,100,0.00,,CLR,0.00,VWS V14.01,2013-11-13 12:11:00,
2013-11-13 04:16:00,42.2,42.2,30.23,WSW,243,0.0,0.0,100,0.00,,CLR,0.00,VWS V14.01,2013-11-13 12:16:00,
2013-11-13 04:21:00,42.1,42.1,30.23,WSW,244,0.0,0.0,100,0.00,,CLR,0.00,VWS V14.01,2013-11-13 12:21:00,
2013-11-13 04:26:00,42.1,42.1,30.23,WSW,245,0.0,0.0,100,0.00,,CLR,0.00,VWS V14.01,2013-11-13 12:26:00,
2013-11-13 04:31:00,41.9,41.9,30.23,WSW,245,0.0,0.0,100,0.00,,CLR,0.00,VWS V14.01,2013-11-13 12:31:00,
2013-11-13 04:36:00,41.9,41.9,30.23,WSW,245,0.0,0.0,100,0.00,,CLR,0.00,VWS V14.01,2013-11-13 12:36:00,
2013-11-13 04:41:00,41.9,41.9,30.23,WSW,245,0.0,0.0,100,0.00,,CLR,0.00,VWS V14.01,2013-11-13 12:41:00,
2013-11-13 04:46:00,41.8,41.8,30.23,WSW,247,0.0,0.0,100,0.00,,CLR,0.00,VWS V14.01,2013-11-13 12:46:00,
2013-11-13 04:51:00,41.7,41.7,30.23,WSW,248,0.0,0.0,100,0.00,,,0.00,VWS V14.01,2013-11-13 12:51:00,
2013-11-13 04:56:00,41.6,41.6,30.23,WSW,250,0.0,0.0,100,0.00,,,0.00,VWS V14.01,2013-11-13 12:56:00,
2013-11-13 05:02:00,41.4,41.4,30.23,WSW,251,0.0,0.0,100,0.00,,,0.00,VWS V14.01,2013-11-13 13:02:00,
2013-11-13 05:07:00,41.3,41.3,30.23,WSW,253,0.0,0.0,100,0.00,,,0.00,VWS V14.01,2013-11-13 13:07:00,
2013-11-13 05:12:00,41.2,41.2,30.23,WSW,253,0.0,0.0,100,0.00,,,0.00,VWS V14.01,2013-11-13 13:12:00,
2013-11-13 05:17:00,41.1,41.1,30.23,WSW,253,0.0,0.0,100,0.00,,,0.00,VWS V14.01,2013-11-13 13:17:00,
2013-11-13 05:22:00,41.1,41.1,30.22,WSW,254,0.0,0.0,100,0.00,,,0.00,VWS V14.01,2013-11-13 13:22:00,
2013-11-13 05:27:00,41.0,41.0,30.22,WSW,257,0.0,0.0,100,0.00,,,0.00,VWS V14.01,2013-11-13 13:27:00,
2013-11-13 05:32:00,41.0,41.0,30.22,West,260,0.0,0.0,100,0.00,,,0.00,VWS V14.01,2013-11-13 13:32:00,
2013-11-13 05:37:00,41.1,41.1,30.22,West,262,0.0,0.0,100,0.00,,,0.00,VWS V14.01,2013-11-13 13:37:00,
2013-11-13 05:42:00,41.1,41.1,30.22,West,262,0.0,0.0,100,0.00,,,0.00,VWS V14.01,2013-11-13 13:42:00,
2013-11-13 05:47:00,41.1,41.1,30.22,WSW,257,0.0,0.0,100,0.00,,,0.00,VWS V14.01,2013-11-13 13:47:00,
2013-11-13 05:52:00,41.0,41.0,30.22,WSW,256,0.0,0.0,100,0.00,,,0.00,VWS V14.01,2013-11-13 13:52:00,
2013-11-13 05:57:00,41.0,41.0,30.22,WSW,256,0.0,0.0,100,0.00,,,0.00,VWS V14.01,2013-11-13 13:57:00,
2013-11-13 06:02:00,40.9,40.9,30.22,WSW,258,0.0,0.0,100,0.00,,,0.00,VWS V14.01,2013-11-13 14:02:00,
2013-11-13 06:07:00,40.7,40.7,30.22,WNW,289,0.0,0.0,100,0.00,,,0.00,VWS V14.01,2013-11-13 14:07:00,
2013-11-13 06:12:00,40.6,40.6,30.22,West,264,0.0,0.0,100,0.00,,,0.00,VWS V14.01,2013-11-13 14:12:00,
2013-11-13 06:17:00,40.6,40.6,30.23,WSW,258,0.0,0.0,100,0.00,,,0.00,VWS V14.01,2013-11-13 14:17:00,
2013-11-13 06:22:00,40.5,40.5,30.23,WSW,258,0.0,0.0,100,0.00,,,0.00,VWS V14.01,2013-11-13 14:22:00,
2013-11-13 06:27:00,40.4,40.4,30.23,West,259,0.0,0.0,100,0.00,,,0.00,VWS V14.01,2013-11-13 14:27:00,
2013-11-13 06:32:00,40.3,40.3,30.23,West,261,0.0,0.0,100,0.00,,,0.00,VWS V14.01,2013-11-13 14:32:00,
2013-11-13 06:38:00,40.1,40.1,30.23,West,262,0.0,0.0,100,0.00,,,0.00,VWS V14.01,2013-11-13 14:38:00,
2013-11-13 06:43:00,40.3,40.3,30.23,West,264,0.0,0.0,100,0.00,,,0.00,VWS V14.01,2013-11-13 14:43:00,
2013-11-13 06:48:00,40.4,40.4,30.23,West,263,0.0,0.0,100,0.00,,,0.00,VWS V14.01,2013-11-13 14:48:00,
2013-11-13 06:53:00,40.3,40.3,30.24,West,262,0.0,0.0,100,0.00,,CLR,0.00,VWS V14.01,2013-11-13 14:53:00,
2013-11-13 06:58:00,40.3,40.3,30.24,West,262,0.0,0.0,100,0.00,,CLR,0.00,VWS V14.01,2013-11-13 14:58:00,
2013-11-13 07:03:00,40.2,40.2,30.24,West,261,0.0,0.0,100,0.00,,CLR,0.00,VWS V14.01,2013-11-13 15:03:00,
2013-11-13 07:08:00,40.1,40.1,30.24,West,261,0.0,0.0,100,0.00,,CLR,0.00,VWS V14.01,2013-11-13 15:08:00,
2013-11-13 07:13:00,40.1,40.1,30.24,NW,323,0.0,0.0,100,0.00,,CLR,0.00,VWS V14.01,2013-11-13 15:13:00,
2013-11-13 07:18:00,40.0,40.0,30.24,NW,323,0.0,0.0,100,0.00,,CLR,0.00,VWS V14.01,2013-11-13 15:18:00,
2013-11-13 07:23:00,40.0,40.0,30.25,NW,323,0.0,0.0,100,0.00,,CLR,0.00,VWS V14.01,2013-11-13 15:23:00,
2013-11-13 07:28:00,40.0,40.0,30.25,NW,324,0.0,0.0,100,0.00,,CLR,0.00,VWS V14.01,2013-11-13 15:28:00,
2013-11-13 07:33:00,40.0,40.0,30.25,NW,323,0.0,0.0,100,0.00,,CLR,0.00,VWS V14.01,2013-11-13 15:33:00,
2013-11-13 07:38:00,40.1,40.1,30.25,NW,323,0.0,0.0,100,0.00,,CLR,0.00,VWS V14.01,2013-11-13 15:38:00,
2013-11-13 07:43:00,40.2,40.2,30.25,NW,323,0.0,0.0,100,0.00,,CLR,0.00,VWS V14.01,2013-11-13 15:43:00,
2013-11-13 07:48:00,40.6,40.6,30.25,NW,318,0.0,0.0,100,0.00,,CLR,0.00,VWS V14.01,2013-11-13 15:48:00,
2013-11-13 07:53:00,41.1,41.1,30.26,South,187,0.0,0.0,100,0.00,,CLR,0.00,VWS V14.01,2013-11-13 15:53:00,
2013-11-13 07:58:00,41.5,41.5,30.26,South,190,0.0,0.0,100,0.00,,CLR,0.00,VWS V14.01,2013-11-13 15:58:00,
2013-11-13 08:04:00,42.1,42.1,30.25,SSW,209,0.0,0.0,100,0.00,,CLR,0.00,VWS V14.01,2013-11-13 16:04:00,
2013-11-13 08:09:00,42.4,42.4,30.26,SW,230,0.0,0.0,100,0.00,,CLR,0.00,VWS V14.01,2013-11-13 16:09:00,
2013-11-13 08:14:00,42.7,42.7,30.25,SW,230,0.0,0.0,100,0.00,,CLR,0.00,VWS V14.01,2013-11-13 16:14:00,
2013-11-13 08:19:00,42.9,42.9,30.26,SW,226,0.0,0.0,100,0.00,,CLR,0.00,VWS V14.01,2013-11-13 16:19:00,
2013-11-13 08:24:00,43.4,43.4,30.25,SW,220,0.0,0.0,100,0.00,,CLR,0.00,VWS V14.01,2013-11-13 16:24:00,
2013-11-13 08:29:00,43.8,43.8,30.25,SW,233,0.0,0.0,100,0.00,,CLR,0.00,VWS V14.01,2013-11-13 16:29:00,
2013-11-13 08:34:00,44.1,44.1,30.25,SW,235,0.0,0.0,100,0.00,,CLR,0.00,VWS V14.01,2013-11-13 16:34:00,
2013-11-13 08:39:00,44.4,44.4,30.25,SW,235,0.0,0.0,100,0.00,,CLR,0.00,VWS V14.01,2013-11-13 16:39:00,
2013-11-13 08:44:00,44.8,44.8,30.25,WSW,237,0.0,0.0,100,0.00,,CLR,0.00,VWS V14.01,2013-11-13 16:44:00,
2013-11-13 08:49:00,45.3,45.3,30.25,WSW,238,0.0,0.0,100,0.00,,CLR,0.00,VWS V14.01,2013-11-13 16:49:00,
2013-11-13 08:54:00,45.8,45.8,30.25,WSW,239,0.0,0.0,100,0.00,,CLR,0.00,VWS V14.01,2013-11-13 16:54:00,
2013-11-13 08:59:00,46.4,46.4,30.25,South,179,0.0,0.0,100,0.00,,CLR,0.00,VWS V14.01,2013-11-13 16:59:00,
2013-11-13 09:04:00,47.4,47.4,30.25,NW,322,0.0,0.0,100,0.00,,CLR,0.00,VWS V14.01,2013-11-13 17:04:00,
2013-11-13 09:09:00,48.4,48.4,30.25,NW,322,0.0,0.0,100,0.00,,CLR,0.00,VWS V14.01,2013-11-13 17:09:00,
2013-11-13 09:14:00,49.6,49.6,30.25,NW,322,0.0,0.0,100,0.00,,CLR,0.00,VWS V14.01,2013-11-13 17:14:00,
2013-11-13 09:19:00,50.6,50.6,30.25,NW,321,0.0,0.0,100,0.00,,CLR,0.00,VWS V14.01,2013-11-13 17:19:00,
2013-11-13 09:25:00,51.8,51.8,30.25,WNW,297,0.0,0.0,100,0.00,,CLR,0.00,VWS V14.01,2013-11-13 17:25:00,
2013-11-13 09:30:00,52.7,52.7,30.24,NW,322,0.0,0.0,100,0.00,,CLR,0.00,VWS V14.01,2013-11-13 17:30:00,
2013-11-13 09:35:00,53.5,53.5,30.24,NW,322,0.0,0.0,100,0.00,,CLR,0.00,VWS V14.01,2013-11-13 17:35:00,
2013-11-13 09:40:00,54.4,53.6,30.24,NW,322,0.0,0.0,97,0.00,,CLR,0.00,VWS V14.01,2013-11-13 17:40:00,
2013-11-13 09:45:00,55.1,52.8,30.24,NW,322,0.0,0.0,92,0.00,,CLR,0.00,VWS V14.01,2013-11-13 17:45:00,
2013-11-13 09:50:00,55.5,52.6,30.24,NW,322,0.0,0.0,90,0.00,,CLR,0.00,VWS V14.01,2013-11-13 17:50:00,
2013-11-13 09:55:00,56.2,53.0,30.24,NW,321,0.0,0.0,89,0.00,,CLR,0.00,VWS V14.01,2013-11-13 17:55:00,
2013-11-13 10:00:00,57.1,52.6,30.24,NW,319,0.0,0.0,85,0.00,,CLR,0.00,VWS V14.01,2013-11-13 18:00:00,
2013-11-13 10:05:00,58.0,52.5,30.23,NW,319,0.0,0.0,82,0.00,,CLR,0.00,VWS V14.01,2013-11-13 18:05:00,
2013-11-13 10:10:00,58.8,53.0,30.24,NW,319,0.0,0.0,81,0.00,,CLR,0.00,VWS V14.01,2013-11-13 18:10:00,
2013-11-13 10:15:00,59.6,53.1,30.23,NW,318,0.0,0.0,79,0.00,,CLR,0.00,VWS V14.01,2013-11-13 18:15:00,
2013-11-13 10:20:00,60.3,53.1,30.23,NW,318,0.0,0.0,77,0.00,,CLR,0.00,VWS V14.01,2013-11-13 18:20:00,
2013-11-13 10:25:00,61.0,53.0,30.23,NW,317,0.0,0.0,75,0.00,,CLR,0.00,VWS V14.01,2013-11-13 18:25:00,
2013-11-13 10:30:00,61.7,52.6,30.22,NW,317,0.0,0.0,72,0.00,,CLR,0.00,VWS V14.01,2013-11-13 18:30:00,
2013-11-13 10:35:00,62.4,52.9,30.22,NW,317,0.0,0.0,71,0.00,,CLR,0.00,VWS V14.01,2013-11-13 18:35:00,
2013-11-13 10:40:00,63.2,53.7,30.22,NW,315,0.0,0.0,71,0.00,,CLR,0.00,VWS V14.01,2013-11-13 18:40:00,
2013-11-13 10:46:00,64.3,53.5,30.21,NW,312,0.0,0.0,68,0.00,,CLR,0.00,VWS V14.01,2013-11-13 18:46:00,
2013-11-13 10:51:00,65.1,53.9,30.21,NW,307,0.0,0.0,67,0.00,,CLR,0.00,VWS V14.01,2013-11-13 18:51:00,
2013-11-13 10:56:00,65.9,53.8,30.20,NW,322,0.0,0.0,65,0.00,,CLR,0.00,VWS V14.01,2013-11-13 18:56:00,
2013-11-13 11:01:00,66.5,53.5,30.20,NW,321,0.0,0.0,63,0.00,,CLR,0.00,VWS V14.01,2013-11-13 19:01:00,
2013-11-13 11:06:00,66.8,52.5,30.19,NW,322,0.0,0.0,60,0.00,,CLR,0.00,VWS V14.01,2013-11-13 19:06:00,
2013-11-13 11:11:00,66.8,52.5,30.19,NW,322,0.0,0.0,60,0.00,,CLR,0.00,VWS V14.01,2013-11-13 19:11:00,
2013-11-13 11:16:00,67.1,52.8,30.19,NW,322,0.0,0.0,60,0.00,,CLR,0.00,VWS V14.01,2013-11-13 19:16:00,
2013-11-13 11:21:00,67.6,52.8,30.19,NW,321,0.0,0.0,59,0.00,,CLR,0.00,VWS V14.01,2013-11-13 19:21:00,
2013-11-13 11:26:00,68.3,52.5,30.19,NW,322,0.0,0.0,57,0.00,,CLR,0.00,VWS V14.01,2013-11-13 19:26:00,
2013-11-13 11:31:00,69.0,52.7,30.18,NW,321,0.0,0.0,56,0.00,,CLR,0.00,VWS V14.01,2013-11-13 19:31:00,
2013-11-13 11:36:00,69.5,52.6,30.18,NW,321,0.0,0.0,55,0.00,,CLR,0.00,VWS V14.01,2013-11-13 19:36:00,
2013-11-13 11:41:00,69.8,52.4,30.18,NW,321,0.0,0.0,54,0.00,,FEW200,0.00,VWS V14.01,2013-11-13 19:41:00,
2013-11-13 11:46:00,70.0,52.1,30.18,NW,321,0.0,1.0,53,0.00,,FEW200,0.00,VWS V14.01,2013-11-13 19:46:00,
2013-11-13 11:51:00,70.5,51.0,30.18,WNW,293,0.0,1.0,50,0.00,,FEW200,0.00,VWS V14.01,2013-11-13 19:51:00,
2013-11-13 11:56:00,71.2,50.0,30.17,West,259,1.0,3.0,47,0.00,,FEW200,0.00,VWS V14.01,2013-11-13 19:56:00,
2013-11-13 12:02:00,71.5,50.8,30.17,NW,319,2.0,3.0,48,0.00,,FEW200,0.00,VWS V14.01,2013-11-13 20:02:00,
2013-11-13 12:07:00,71.8,50.5,30.17,WNW,291,0.0,3.0,47,0.00,,FEW200,0.00,VWS V14.01,2013-11-13 20:07:00,
2013-11-13 12:12:00,72.1,50.2,30.17,West,280,0.0,3.0,46,0.00,,FEW200,0.00,VWS V14.01,2013-11-13 20:12:00,
2013-11-13 12:17:00,72.6,50.1,30.16,NW,306,0.0,3.0,45,0.00,,FEW200,0.00,VWS V14.01,2013-11-13 20:17:00,
2013-11-13 12:22:00,72.8,49.6,30.16,West,275,0.0,3.0,44,0.00,,FEW200,0.00,VWS V14.01,2013-11-13 20:22:00,
2013-11-13 12:27:00,72.8,49.6,30.16,NW,314,3.0,5.0,44,0.00,,FEW200,0.00,VWS V14.01,2013-11-13 20:27:00,
2013-11-13 12:32:00,72.8,49.6,30.15,West,278,0.0,3.0,44,0.00,,FEW200,0.00,VWS V14.01,2013-11-13 20:32:00,
2013-11-13 12:37:00,72.7,49.5,30.15,WNW,297,2.0,4.0,44,0.00,,FEW200,0.00,VWS V14.01,2013-11-13 20:37:00,
2013-11-13 12:42:00,72.5,49.4,30.15,West,264,4.0,7.0,44,0.00,,FEW200,0.00,VWS V14.01,2013-11-13 20:42:00,
2013-11-13 12:47:00,72.4,48.7,30.15,WNW,293,1.0,7.0,43,0.00,,FEW200,0.00,VWS V14.01,2013-11-13 20:47:00,
2013-11-13 12:53:00,72.5,48.8,30.14,WSW,252,0.0,7.0,43,0.00,,FEW200,0.00,VWS V14.01,2013-11-13 20:53:00,
2013-11-13 12:58:00,72.5,48.8,30.14,NNW,335,0.0,7.0,43,0.00,,FEW200,0.00,VWS V14.01,2013-11-13 20:58:00,
2013-11-13 13:03:00,72.7,48.3,30.14,WNW,283,7.0,8.0,42,0.00,,FEW200,0.00,VWS V14.01,2013-11-13 21:03:00,
2013-11-13 13:08:00,72.7,48.3,30.13,WNW,299,3.0,8.0,42,0.00,,FEW200,0.00,VWS V14.01,2013-11-13 21:08:00,
2013-11-13 13:13:00,72.8,48.4,30.13,West,270,1.0,8.0,42,0.00,,FEW200,0.00,VWS V14.01,2013-11-13 21:13:00,
2013-11-13 13:18:00,72.9,47.8,30.13,NW,311,3.0,8.0,41,0.00,,FEW200,0.00,VWS V14.01,2013-11-13 21:18:00,
2013-11-13 13:23:00,72.7,47.7,30.12,WNW,300,8.0,8.0,41,0.00,,FEW200,0.00,VWS V14.01,2013-11-13 21:23:00,
2013-11-13 13:28:00,72.6,47.6,30.12,West,267,2.0,8.0,41,0.00,,FEW200,0.00,VWS V14.01,2013-11-13 21:28:00,
2013-11-13 13:34:00,72.4,48.0,30.12,WNW,285,0.0,7.0,42,0.00,,FEW200,0.00,VWS V14.01,2013-11-13 21:34:00,
2013-11-13 13:39:00,72.0,47.7,30.12,West,268,3.0,9.0,42,0.00,,FEW200,0.00,VWS V14.01,2013-11-13 21:39:00,
2013-11-13 13:44:00,71.6,47.3,30.12,WNW,291,4.0,9.0,42,0.00,,CLR,0.00,VWS V14.01,2013-11-13 21:44:00,
2013-11-13 13:49:00,71.2,47.6,30.12,West,267,3.0,9.0,43,0.00,,CLR,0.00,VWS V14.01,2013-11-13 21:49:00,
2013-11-13 13:54:00,70.9,47.3,30.12,WNW,288,3.0,9.0,43,0.00,,CLR,0.00,VWS V14.01,2013-11-13 21:54:00,
2013-11-13 13:59:00,70.2,46.7,30.12,WNW,298,4.0,9.0,43,0.00,,CLR,0.00,VWS V14.01,2013-11-13 21:59:00,
2013-11-13 14:04:00,69.6,46.8,30.12,WNW,287,3.0,8.0,44,0.00,,CLR,0.00,VWS V14.01,2013-11-13 22:04:00,
2013-11-13 14:09:00,69.1,47.5,30.12,WNW,293,1.0,8.0,46,0.00,,CLR,0.00,VWS V14.01,2013-11-13 22:09:00,
2013-11-13 14:14:00,68.7,47.1,30.12,WNW,292,0.0,8.0,46,0.00,,CLR,0.00,VWS V14.01,2013-11-13 22:14:00,
2013-11-13 14:19:00,68.3,47.9,30.12,WNW,286,0.0,8.0,48,0.00,,CLR,0.00,VWS V14.01,2013-11-13 22:19:00,
2013-11-13 14:24:00,68.0,47.6,30.12,NW,306,3.0,8.0,48,0.00,,CLR,0.00,VWS V14.01,2013-11-13 22:24:00,
2013-11-13 14:29:00,67.8,48.0,30.12,NNW,330,0.0,8.0,49,0.00,,CLR,0.00,VWS V14.01,2013-11-13 22:29:00,
2013-11-13 14:34:00,67.4,48.1,30.11,WSW,247,0.0,6.0,50,0.00,,CLR,0.00,VWS V14.01,2013-11-13 22:34:00,
2013-11-13 14:39:00,67.0,47.8,30.11,WSW,251,2.0,6.0,50,0.00,,CLR,0.00,VWS V14.01,2013-11-13 22:39:00,
2013-11-13 14:45:00,66.8,48.1,30.11,WNW,292,0.0,6.0,51,0.00,,SCT200,0.00,VWS V14.01,2013-11-13 22:45:00,
2013-11-13 14:50:00,66.6,48.4,30.11,WNW,287,0.0,6.0,52,0.00,,SCT200,0.00,VWS V14.01,2013-11-13 22:50:00,
2013-11-13 14:55:00,66.6,48.4,30.11,West,274,1.0,6.0,52,0.00,,SCT200,0.00,VWS V14.01,2013-11-13 22:55:00,
2013-11-13 15:00:00,66.7,48.5,30.11,WNW,298,0.0,6.0,52,0.00,,SCT200,0.00,VWS V14.01,2013-11-13 23:00:00,
2013-11-13 15:05:00,66.5,48.3,30.11,WNW,298,0.0,0.0,52,0.00,,SCT200,0.00,VWS V14.01,2013-11-13 23:05:00,
2013-11-13 15:10:00,66.4,48.3,30.11,NNW,335,0.0,5.0,52,0.00,,SCT200,0.00,VWS V14.01,2013-11-13 23:10:00,
2013-11-13 15:15:00,66.2,48.1,30.11,West,280,0.0,5.0,52,0.00,,SCT200,0.00,VWS V14.01,2013-11-13 23:15:00,
2013-11-13 15:20:00,66.1,48.5,30.10,West,276,0.0,5.0,53,0.00,,SCT200,0.00,VWS V14.01,2013-11-13 23:20:00,
2013-11-13 15:25:00,66.0,48.4,30.11,WNW,283,0.0,5.0,53,0.00,,SCT200,0.00,VWS V14.01,2013-11-13 23:25:00,
2013-11-13 15:30:00,65.9,48.8,30.10,WNW,282,0.0,0.0,54,0.00,,SCT200,0.00,VWS V14.01,2013-11-13 23:30:00,
2013-11-13 15:35:00,65.7,48.6,30.10,WNW,282,0.0,0.0,54,0.00,,SCT200,0.00,VWS V14.01,2013-11-13 23:35:00,
2013-11-13 15:40:00,65.6,49.0,30.10,WNW,282,0.0,0.0,55,0.00,,CLR,0.00,VWS V14.01,2013-11-13 23:40:00,
2013-11-13 15:45:00,65.3,48.7,30.10,WNW,296,0.0,1.0,55,0.00,,CLR,0.00,VWS V14.01,2013-11-13 23:45:00,
2013-11-13 15:50:00,65.1,49.0,30.10,WNW,285,0.0,2.0,56,0.00,,CLR,0.00,VWS V14.01,2013-11-13 23:50:00,
2013-11-13 15:55:00,64.9,48.8,30.11,WNW,299,0.0,2.0,56,0.00,,CLR,0.00,VWS V14.01,2013-11-13 23:55:00,
2013-11-13 16:00:00,64.7,49.1,30.10,WNW,294,0.0,0.0,57,0.00,,CLR,0.00,VWS V14.01,2013-11-14 00:00:00,
2013-11-13 16:05:00,64.4,48.8,30.11,NW,306,0.0,0.0,57,0.00,,CLR,0.00,VWS V14.01,2013-11-14 00:05:00,
2013-11-13 16:11:00,64.1,49.5,30.11,West,263,0.0,4.0,59,0.00,,CLR,0.00,VWS V14.01,2013-11-14 00:11:00,
2013-11-13 16:16:00,63.9,49.3,30.11,West,263,0.0,4.0,59,0.00,,CLR,0.00,VWS V14.01,2013-11-14 00:16:00,
2013-11-13 16:21:00,63.6,49.5,30.10,West,263,0.0,4.0,60,0.00,,CLR,0.00,VWS V14.01,2013-11-14 00:21:00,
2013-11-13 16:26:00,63.4,49.3,30.11,West,262,0.0,4.0,60,0.00,,CLR,0.00,VWS V14.01,2013-11-14 00:26:00,
2013-11-13 16:31:00,63.1,49.5,30.10,West,262,0.0,0.0,61,0.00,,CLR,0.00,VWS V14.01,2013-11-14 00:31:00,
2013-11-13 16:36:00,62.7,49.5,30.10,West,261,0.0,0.0,62,0.00,,CLR,0.00,VWS V14.01,2013-11-14 00:36:00,
2013-11-13 16:41:00,62.4,49.7,30.10,WSW,252,0.0,0.0,63,0.00,,CLR,0.00,VWS V14.01,2013-11-14 00:41:00,
2013-11-13 16:46:00,62.2,49.9,30.10,SSE,154,0.0,0.0,64,0.00,,CLR,0.00,VWS V14.01,2013-11-14 00:46:00,
2013-11-13 16:51:00,61.9,50.0,30.10,South,169,0.0,0.0,65,0.00,,CLR,0.00,VWS V14.01,2013-11-14 00:51:00,
2013-11-13 16:56:00,61.4,50.4,30.10,SSE,164,0.0,0.0,67,0.00,,CLR,0.00,VWS V14.01,2013-11-14 00:56:00,
2013-11-13 17:01:00,60.9,50.7,30.10,South,170,0.0,0.0,69,0.00,,CLR,0.00,VWS V14.01,2013-11-14 01:01:00,
2013-11-13 17:06:00,60.3,50.9,30.10,SSE,168,0.0,0.0,71,0.00,,CLR,0.00,VWS V14.01,2013-11-14 01:06:00,
2013-11-13 17:11:00,59.9,50.9,30.10,South,169,0.0,0.0,72,0.00,,CLR,0.00,VWS V14.01,2013-11-14 01:11:00,
2013-11-13 17:17:00,59.5,50.8,30.11,SSE,167,0.0,0.0,73,0.00,,CLR,0.00,VWS V14.01,2013-11-14 01:17:00,
2013-11-13 17:22:00,59.2,50.9,30.11,South,169,0.0,0.0,74,0.00,,CLR,0.00,VWS V14.01,2013-11-14 01:22:00,
2013-11-13 17:27:00,58.8,50.9,30.11,South,170,0.0,0.0,75,0.00,,CLR,0.00,VWS V14.01,2013-11-14 01:27:00,
2013-11-13 17:32:00,58.4,51.2,30.11,South,172,0.0,0.0,77,0.00,,CLR,0.00,VWS V14.01,2013-11-14 01:32:00,
2013-11-13 17:37:00,58.1,50.9,30.11,South,172,0.0,0.0,77,0.00,,CLR,0.00,VWS V14.01,2013-11-14 01:37:00,
2013-11-13 17:42:00,57.6,50.8,30.11,South,174,0.0,0.0,78,0.00,,CLR,0.00,VWS V14.01,2013-11-14 01:42:00,
2013-11-13 17:47:00,57.3,51.2,30.11,South,176,0.0,0.0,80,0.00,,CLR,0.00,VWS V14.01,2013-11-14 01:47:00,
2013-11-13 17:52:00,57.0,51.2,30.11,South,174,0.0,0.0,81,0.00,,SCT200,0.00,VWS V14.01,2013-11-14 01:52:00,
2013-11-13 17:57:00,56.6,51.2,30.11,South,175,0.0,0.0,82,0.00,,SCT200,0.00,VWS V14.01,2013-11-14 01:57:00,
2013-11-13 18:02:00,56.2,51.4,30.11,South,180,0.0,0.0,84,0.00,,SCT200,0.00,VWS V14.01,2013-11-14 02:02:00,
2013-11-13 18:07:00,56.0,51.2,30.11,South,179,0.0,0.0,84,0.00,,SCT200,0.00,VWS V14.01,2013-11-14 02:07:00,
2013-11-13 18:12:00,55.7,51.6,30.11,South,179,0.0,0.0,86,0.00,,SCT200,0.00,VWS V14.01,2013-11-14 02:12:00,
2013-11-13 18:17:00,55.4,51.3,30.12,South,182,0.0,0.0,86,0.00,,SCT200,0.00,VWS V14.01,2013-11-14 02:17:00,
2013-11-13 18:22:00,55.2,51.1,30.11,South,181,0.0,0.0,86,0.00,,SCT200,0.00,VWS V14.01,2013-11-14 02:22:00,
2013-11-13 18:28:00,55.0,51.2,30.11,South,186,0.0,0.0,87,0.00,,SCT200,0.00,VWS V14.01,2013-11-14 02:28:00,
2013-11-13 18:33:00,54.7,51.2,30.11,South,186,0.0,0.0,88,0.00,,SCT200,0.00,VWS V14.01,2013-11-14 02:33:00,
2013-11-13 18:38:00,54.5,51.0,30.11,South,183,0.0,0.0,88,0.00,,SCT200,0.00,VWS V14.01,2013-11-14 02:38:00,
2013-11-13 18:43:00,54.2,51.3,30.11,South,186,0.0,0.0,90,0.00,,SCT200,0.00,VWS V14.01,2013-11-14 02:43:00,
2013-11-13 18:48:00,54.0,51.7,30.11,South,186,0.0,0.0,92,0.00,,SCT200,0.00,VWS V14.01,2013-11-14 02:48:00,
2013-11-13 18:53:00,53.7,51.1,30.11,South,184,0.0,0.0,91,0.00,,CLR,0.00,VWS V14.01,2013-11-14 02:53:00,
2013-11-13 18:58:00,53.5,51.5,30.11,South,186,0.0,0.0,93,0.00,,CLR,0.00,VWS V14.01,2013-11-14 02:58:00,
2013-11-13 19:03:00,53.3,51.3,30.11,South,179,0.0,0.0,93,0.00,,CLR,0.00,VWS V14.01,2013-11-14 03:03:00,
2013-11-13 19:08:00,53.0,51.0,30.11,South,181,0.0,0.0,93,0.00,,CLR,0.00,VWS V14.01,2013-11-14 03:08:00,
2013-11-13 19:13:00,52.9,51.2,30.11,South,184,0.0,0.0,94,0.00,,CLR,0.00,VWS V14.01,2013-11-14 03:13:00,
2013-11-13 19:18:00,52.6,51.2,30.11,South,184,0.0,0.0,95,0.00,,CLR,0.00,VWS V14.01,2013-11-14 03:18:00,
2013-11-13 19:23:00,52.4,50.7,30.11,South,185,0.0,0.0,94,0.00,,CLR,0.00,VWS V14.01,2013-11-14 03:23:00,
2013-11-13 19:28:00,52.1,50.7,30.10,South,185,0.0,0.0,95,0.00,,CLR,0.00,VWS V14.01,2013-11-14 03:28:00,
2013-11-13 19:34:00,51.8,50.7,30.11,South,187,0.0,0.0,96,0.00,,CLR,0.00,VWS V14.01,2013-11-14 03:34:00,
2013-11-13 19:39:00,51.7,50.6,30.10,South,188,0.0,0.0,96,0.00,,CLR,0.00,VWS V14.01,2013-11-14 03:39:00,
2013-11-13 19:44:00,51.5,50.4,30.10,South,188,0.0,0.0,96,0.00,,CLR,0.00,VWS V14.01,2013-11-14 03:44:00,
2013-11-13 19:49:00,51.2,50.1,30.11,South,186,0.0,0.0,96,0.00,,CLR,0.00,VWS V14.01,2013-11-14 03:49:00,
2013-11-13 19:54:00,51.0,50.2,30.10,South,186,0.0,0.0,97,0.00,,CLR,0.00,VWS V14.01,2013-11-14 03:54:00,
2013-11-13 19:59:00,50.9,50.4,30.10,South,188,0.0,0.0,98,0.00,,CLR,0.00,VWS V14.01,2013-11-14 03:59:00,
2013-11-13 20:04:00,50.8,50.5,30.11,South,188,0.0,0.0,99,0.00,,CLR,0.00,VWS V14.01,2013-11-14 04:04:00,
2013-11-13 20:09:00,50.6,50.3,30.11,South,188,0.0,0.0,99,0.00,,CLR,0.00,VWS V14.01,2013-11-14 04:09:00,
2013-11-13 20:14:00,50.4,50.4,30.11,South,189,0.0,0.0,100,0.00,,CLR,0.00,VWS V14.01,2013-11-14 04:14:00,
2013-11-13 20:19:00,50.3,50.3,30.11,South,190,0.0,0.0,100,0.00,,CLR,0.00,VWS V14.01,2013-11-14 04:19:00,
2013-11-13 20:24:00,50.2,50.2,30.11,South,189,0.0,0.0,100,0.00,,CLR,0.00,VWS V14.01,2013-11-14 04:24:00,
2013-11-13 20:29:00,49.9,49.9,30.11,South,188,0.0,0.0,100,0.00,,CLR,0.00,VWS V14.01,2013-11-14 04:29:00,
2013-11-13 20:34:00,49.7,49.7,30.11,South,188,0.0,0.0,100,0.00,,CLR,0.00,VWS V14.01,2013-11-14 04:34:00,
2013-11-13 20:40:00,49.6,49.6,30.11,South,190,0.0,0.0,100,0.00,,CLR,0.00,VWS V14.01,2013-11-14 04:40:00,
2013-11-13 20:45:00,49.5,49.5,30.11,South,190,0.0,0.0,100,0.00,,CLR,0.00,VWS V14.01,2013-11-14 04:45:00,
2013-11-13 20:50:00,49.5,49.5,30.11,South,191,0.0,0.0,100,0.00,,CLR,0.00,VWS V14.01,2013-11-14 04:50:00,
2013-11-13 20:55:00,49.3,49.3,30.11,South,189,0.0,0.0,100,0.00,,CLR,0.00,VWS V14.01,2013-11-14 04:55:00,
2013-11-13 21:00:00,49.0,49.0,30.11,South,189,0.0,0.0,100,0.00,,CLR,0.00,VWS V14.01,2013-11-14 05:00:00,
2013-11-13 21:01:00,49.0,49.0,30.11,South,189,0.0,0.0,100,0.00,,CLR,0.00,VWS V14.01,2013-11-14 05:01:00,
2013-11-13 21:02:00,49.0,49.0,30.11,South,190,0.0,0.0,100,0.00,,CLR,0.00,VWS V14.01,2013-11-14 05:02:00,
2013-11-13 21:03:00,48.9,48.9,30.11,South,189,0.0,0.0,100,0.00,,CLR,0.00,VWS V14.01,2013-11-14 05:03:00,
2013-11-13 21:08:00,48.7,48.7,30.11,South,188,0.0,0.0,100,0.00,,CLR,0.00,VWS V14.01,2013-11-14 05:08:00,
2013-11-13 21:13:00,48.5,48.5,30.11,South,190,0.0,0.0,100,0.00,,CLR,0.00,VWS V14.01,2013-11-14 05:13:00,
2013-11-13 21:19:00,48.5,48.5,30.11,South,189,0.0,0.0,100,0.00,,CLR,0.00,VWS V14.01,2013-11-14 05:19:00,
2013-11-13 21:24:00,48.6,48.6,30.12,South,190,0.0,0.0,100,0.00,,CLR,0.00,VWS V14.01,2013-11-14 05:24:00,
2013-11-13 21:29:00,48.6,48.6,30.12,South,190,0.0,0.0,100,0.00,,CLR,0.00,VWS V14.01,2013-11-14 05:29:00,
2013-11-13 21:34:00,48.4,48.4,30.12,South,191,0.0,0.0,100,0.00,,CLR,0.00,VWS V14.01,2013-11-14 05:34:00,
2013-11-13 21:39:00,48.3,48.3,30.12,SW,230,0.0,0.0,100,0.00,,CLR,0.00,VWS V14.01,2013-11-14 05:39:00,
2013-11-13 21:44:00,48.1,48.1,30.12,South,186,0.0,0.0,100,0.00,,CLR,0.00,VWS V14.01,2013-11-14 05:44:00,
2013-11-13 21:49:00,47.8,47.8,30.12,South,186,0.0,0.0,100,0.00,,CLR,0.00,VWS V14.01,2013-11-14 05:49:00,
2013-11-13 21:54:00,47.7,47.7,30.12,South,187,0.0,0.0,100,0.00,,,0.00,VWS V14.01,2013-11-14 05:54:00,
2013-11-13 21:59:00,47.6,47.6,30.12,South,186,0.0,0.0,100,0.00,,,0.00,VWS V14.01,2013-11-14 05:59:00,
2013-11-13 22:04:00,47.4,47.4,30.12,South,187,0.0,0.0,100,0.00,,,0.00,VWS V14.01,2013-11-14 06:04:00,
2013-11-13 22:09:00,47.3,47.3,30.12,South,187,0.0,0.0,100,0.00,,,0.00,VWS V14.01,2013-11-14 06:09:00,
2013-11-13 22:14:00,47.3,47.3,30.12,South,187,0.0,0.0,100,0.00,,,0.00,VWS V14.01,2013-11-14 06:14:00,
2013-11-13 22:19:00,47.4,47.4,30.13,South,188,0.0,0.0,100,0.00,,,0.00,VWS V14.01,2013-11-14 06:19:00,
2013-11-13 22:24:00,47.2,47.2,30.12,South,188,0.0,0.0,100,0.00,,,0.00,VWS V14.01,2013-11-14 06:24:00,
2013-11-13 22:30:00,47.2,47.2,30.13,South,189,0.0,0.0,100,0.00,,,0.00,VWS V14.01,2013-11-14 06:30:00,
2013-11-13 22:35:00,47.1,47.1,30.13,South,188,0.0,0.0,100,0.00,,,0.00,VWS V14.01,2013-11-14 06:35:00,
2013-11-13 22:40:00,46.8,46.8,30.13,South,186,0.0,0.0,100,0.00,,,0.00,VWS V14.01,2013-11-14 06:40:00,
2013-11-13 22:45:00,46.7,46.7,30.12,South,187,0.0,0.0,100,0.00,,,0.00,VWS V14.01,2013-11-14 06:45:00,
2013-11-13 22:50:00,46.6,46.6,30.13,South,187,0.0,0.0,100,0.00,,,0.00,VWS V14.01,2013-11-14 06:50:00,
2013-11-13 22:55:00,46.4,46.4,30.12,South,187,0.0,0.0,100,0.00,,,0.00,VWS V14.01,2013-11-14 06:55:00,
2013-11-13 23:00:00,46.2,46.2,30.12,South,188,0.0,0.0,100,0.00,,,0.00,VWS V14.01,2013-11-14 07:00:00,
2013-11-13 23:05:00,46.1,46.1,30.12,South,186,0.0,0.0,100,0.00,,,0.00,VWS V14.01,2013-11-14 07:05:00,
2013-11-13 23:10:00,46.0,46.0,30.12,South,186,0.0,0.0,100,0.00,,,0.00,VWS V14.01,2013-11-14 07:10:00,
2013-11-13 23:15:00,45.8,45.8,30.12,South,187,0.0,0.0,100,0.00,,,0.00,VWS V14.01,2013-11-14 07:15:00,
2013-11-13 23:20:00,45.7,45.7,30.12,South,188,0.0,0.0,100,0.00,,,0.00,VWS V14.01,2013-11-14 07:20:00,
2013-11-13 23:25:00,45.8,45.8,30.12,South,189,0.0,0.0,100,0.00,,,0.00,VWS V14.01,2013-11-14 07:25:00,
2013-11-13 23:30:00,46.1,46.1,30.12,South,189,0.0,0.0,100,0.00,,,0.00,VWS V14.01,2013-11-14 07:30:00,
2013-11-13 23:36:00,46.2,46.2,30.12,South,190,0.0,0.0,100,0.00,,,0.00,VWS V14.01,2013-11-14 07:36:00,
2013-11-13 23:41:00,46.2,46.2,30.12,South,190,0.0,0.0,100,0.00,,,0.00,VWS V14.01,2013-11-14 07:41:00,
2013-11-13 23:46:00,46.1,46.1,30.12,South,191,0.0,0.0,100,0.00,,,0.00,VWS V14.01,2013-11-14 07:46:00,
2013-11-13 23:51:00,46.1,46.1,30.12,South,191,0.0,0.0,100,0.00,,,0.00,VWS V14.01,2013-11-14 07:51:00,
2013-11-13 23:56:00,46.1,46.1,30.12,SSW,192,0.0,0.0,100,0.00,,,0.00,VWS V14.01,2013-11-14 07:56:00,